DW6064 Weather Reports


time (UTC)temp
C
wind
direction
speed
KPH
gust
KPH
rain 1hr
cm
rain 24hr
cm
rain mn
cm
humidity
%
barometer
mb
20260509162530 13 168 8.0 11.3 0.00 0.51 0.51 88 1010.7
20260509162047 13 146 6.4 9.7 0.00 0.51 0.51 88 1010.7
20260509161544 13 121 6.4 9.7 0.03 0.51 0.51 88 1010.5
20260509161045 13 130 4.8 6.4 0.03 0.51 0.51 89 1010.5
20260509160544 13 46 1.6 4.8 0.05 0.51 0.51 90 1010.5
20260509160104 12 355 1.6 4.8 0.05 0.51 0.51 89 1010.4
20260509155540 12 318 0.0 4.8 0.08 0.51 0.51 89 1010.4
20260509155041 12 318 1.6 4.8 0.10 0.51 0.51 90 1010.3
20260509154535 12 85 0.0 4.8 0.13 0.51 0.51 90 1010.2
20260509154026 12 85 3.2 6.4 0.15 0.51 0.51 90 1010.1
20260509153524 12 85 3.2 6.4 0.18 0.51 0.51 91 1010.2
20260509153044 12 57 1.6 6.4 0.20 0.51 0.51 90 1010.1
20260509152544 12 5 0.0 4.8 0.23 0.51 0.51 90 1010.3
20260509152043 12 355 3.2 4.8 0.25 0.51 0.51 90 1010.3
20260509151540 12 360 1.6 8.0 0.28 0.48 0.48 90 1010.4
20260509151042 12 5 0.0 8.0 0.30 0.48 0.48 88 1010.6
20260509150537 12 13 3.2 4.8 0.30 0.46 0.46 88 1010.7
20260509150033 12 294 1.6 12.9 0.33 0.46 0.46 88 1010.9
20260509145527 12 294 1.6 12.9 0.30 0.43 0.43 87 1011.0
20260509145104 12 279 4.8 11.3 0.30 0.41 0.41 86 1011.1
20260509144540 12 103 1.6 4.8 0.28 0.38 0.38 87 1011.2
20260509144034 12 156 1.6 4.8 0.28 0.36 0.36 86 1011.3
20260509143527 12 156 3.2 4.8 0.25 0.33 0.33 87 1011.3
20260509143050 12 156 3.2 4.8 0.25 0.30 0.30 87 1011.3
20260509142524 12 156 1.6 8.0 0.23 0.28 0.28 86 1011.1
20260509142103 12 156 3.2 8.0 0.23 0.25 0.25 86 1011.1
20260509141542 12 156 4.8 8.0 0.18 0.20 0.20 85 1011.0
20260509141104 12 161 6.4 8.0 0.15 0.18 0.18 84 1011.0
20260509140538 12 147 4.8 6.4 0.13 0.15 0.15 84 1010.9
20260509140036 12 147 4.8 6.4 0.10 0.13 0.13 83 1010.8
20260509135536 13 140 3.2 6.4 0.10 0.13 0.13 83 1010.8
20260509135031 13 132 3.2 8.0 0.08 0.10 0.10 82 1010.7
20260509134548 13 125 4.8 11.3 0.08 0.10 0.10 82 1010.7
20260509134047 13 144 6.4 11.3 0.05 0.08 0.08 82 1010.7
20260509133544 13 134 6.4 11.3 0.05 0.08 0.08 82 1010.7
20260509133044 13 134 6.4 11.3 0.03 0.05 0.05 82 1010.7
20260509132544 13 139 6.4 12.9 0.03 0.05 0.05 81 1010.8
20260509132041 13 147 8.0 12.9 0.00 0.03 0.03 80 1010.7
20260509131535 13 131 6.4 8.0 0.00 0.03 0.03 80 1010.7
20260509131026 13 133 4.8 8.0 0.00 0.03 0.03 78 1010.6
20260509130539 13 161 4.8 8.0 0.00 0.03 0.03 78 1010.7
20260509130035 12 135 1.6 4.8 0.00 0.03 0.03 79 1010.6
20260509125555 12 135 3.2 6.4 0.00 0.03 0.03 79 1010.6
20260509125030 12 135 3.2 6.4 0.00 0.03 0.03 81 1010.6
20260509124548 12 135 3.2 6.4 0.00 0.03 0.03 82 1010.7
20260509124041 12 135 3.2 4.8 0.00 0.03 0.03 81 1010.7
20260509123532 12 160 3.2 8.0 0.03 0.03 0.03 81 1010.8
20260509123025 12 178 4.8 11.3 0.03 0.03 0.03 81 1010.8
20260509122543 12 176 8.0 11.3 0.03 0.03 0.03 82 1010.9
20260509122037 12 161 6.4 8.0 0.03 0.03 0.03 82 1010.9
20260509121531 12 172 3.2 4.8 0.03 0.03 0.03 82 1010.8
20260509121026 11 172 1.6 6.4 0.03 0.03 0.03 82 1010.9
20260509120543 11 172 3.2 11.3 0.03 0.03 0.03 83 1010.8
20260509120104 11 156 6.4 11.3 0.03 0.03 0.03 83 1010.9
20260509115601 11 161 8.0 9.7 0.03 0.03 0.03 83 1011.0
20260509115042 11 355 1.6 4.8 0.03 0.03 0.03 83 1010.8
20260509114541 11 355 1.6 4.8 0.03 0.03 0.03 82 1010.6
20260509114041 11 63 1.6 3.2 0.03 0.03 0.03 82 1010.6
20260509113537 11 121 0.0 3.2 0.00 0.00 0.00 82 1010.7
20260509113032 11 121 1.6 3.2 0.00 0.00 0.00 80 1010.8
20260509112548 11 121 3.2 6.4 0.00 0.00 0.00 79 1010.8
20260509112043 11 121 3.2 6.4 0.00 0.00 0.00 79 1010.8
20260509111539 11 121 0.0 4.8 0.00 0.00 0.00 79 1010.8
20260509111101 11 36 0.0 3.2 0.00 0.00 0.00 80 1010.6
20260509110531 11 36 0.0 8.0 0.00 0.00 0.00 79 1010.6
20260509110027 11 58 4.8 8.0 0.00 0.00 0.00 79 1010.3
20260509105539 11 307 0.0 4.8 0.00 0.00 0.00 79 1010.4
20260509105033 11 307 0.0 3.2 0.00 0.00 0.00 78 1010.3
20260509104528 11 307 1.6 3.2 0.00 0.00 0.00 77 1010.4
20260509104028 11 307 0.0 3.2 0.00 0.00 0.00 77 1010.2
20260509103544 11 307 0.0 3.2 0.00 0.00 0.00 78 1010.1
20260509103038 11 307 0.0 3.2 0.00 0.00 0.00 76 1010.2
20260509102531 11 307 1.6 3.2 0.00 0.00 0.00 76 1010.1
20260509102028 11 307 1.6 6.4 0.00 0.00 0.00 75 1010.0
20260509101543 11 307 3.2 6.4 0.00 0.00 0.00 75 1010.0
20260509101043 11 345 3.2 4.8 0.00 0.00 0.00 75 1009.8
20260509100540 11 345 1.6 3.2 0.00 0.00 0.00 75 1009.7
20260509100035 11 345 0.0 0.0 0.00 0.00 0.00 75 1009.7
20260509095534 11 345 0.0 3.2 0.00 0.00 0.00 74 1009.5
20260509095052 11 345 1.6 3.2 0.00 0.00 0.00 74 1009.6
20260509094526 11 345 0.0 3.2 0.00 0.00 0.00 74 1009.7
20260509094106 11 345 0.0 3.2 0.00 0.00 0.00 74 1009.6
20260509093542 11 345 0.0 3.2 0.00 0.00 0.00 74 1009.5
20260509093041 11 345 1.6 6.4 0.00 0.00 0.00 73 1009.6
20260509092538 11 333 3.2 6.4 0.00 0.00 0.00 73 1009.7
20260509092034 11 338 0.0 6.4 0.00 0.00 0.00 73 1009.6
20260509091551 11 338 1.6 6.4 0.00 0.00 0.00 73 1009.6
20260509091026 11 323 4.8 6.4 0.00 0.00 0.00 73 1009.8
20260509090543 11 323 4.8 6.4 0.00 0.00 0.00 73 1009.7
20260509090044 11 318 3.2 6.4 0.00 0.00 0.00 73 1009.6
20260509085538 11 312 4.8 6.4 0.00 0.00 0.00 73 1009.7
20260509085032 11 310 0.0 0.0 0.00 0.00 0.00 74 1009.6
20260509084548 11 309 0.0 0.0 0.00 0.00 0.00 74 1009.7
20260509084045 11 310 0.0 0.0 0.00 0.00 0.00 73 1009.7
20260509083538 12 310 0.0 0.0 0.00 0.00 0.00 73 1009.7
20260509083057 12 310 0.0 0.0 0.00 0.00 0.00 73 1009.6
20260509082530 12 310 0.0 0.0 0.00 0.00 0.00 73 1009.8
20260509082051 12 310 0.0 3.2 0.00 0.00 0.00 73 1009.9
20260509081548 12 310 0.0 3.2 0.00 0.00 0.00 73 1009.9
20260509081047 12 310 3.2 4.8 0.00 0.00 0.00 72 1009.9
20260509080605 12 310 3.2 6.4 0.00 0.00 0.00 71 1009.9
20260509080037 12 310 3.2 6.4 0.00 0.00 0.00 72 1009.9
20260509075531 12 20 3.2 4.8 0.00 0.00 0.00 72 1009.9
20260509075025 12 57 1.6 4.8 0.00 0.00 0.00 72 1009.8
20260509074536 12 57 0.0 1.6 0.00 0.00 0.00 72 1009.7
20260509074039 12 57 0.0 1.6 0.00 0.00 0.00 72 1009.7
20260509073531 12 57 0.0 1.6 0.00 0.00 0.00 71 1009.7
20260509073027 12 57 0.0 3.2 0.00 0.00 0.00 71 1009.9
20260509072544 12 57 0.0 4.8 0.00 0.00 0.00 71 1009.9
20260509072043 12 57 1.6 6.4 0.00 0.00 0.00 71 1009.8
20260509071541 12 57 1.6 8.0 0.00 0.00 0.00 70 1010.0
20260509071041 12 62 4.8 8.0 0.00 0.00 0.00 71 1010.0
20260509070540 12 55 3.2 8.0 0.00 0.00 0.00 71 1010.0
20260509070039 12 53 4.8 8.0 0.00 0.00 0.00 70 1010.0
20260509065537 12 32 3.2 11.3 0.00 0.00 0.00 70 1010.1
20260509065028 12 59 4.8 11.3 0.00 0.00 0.00 70 1010.2
20260509064547 12 52 4.8 9.7 0.00 0.00 0.00 70 1010.2
20260509064105 12 54 4.8 9.7 0.00 0.00 0.00 70 1010.2
20260509063542 12 32 3.2 9.7 0.00 0.00 0.00 70 1010.3
20260509063102 12 37 4.8 9.7 0.00 0.00 0.00 70 1010.3
20260509062536 12 25 4.8 9.7 0.00 0.00 0.00 69 1010.3
20260509062031 12 5 4.8 9.7 0.00 0.00 0.00 68 1010.4
20260509061524 12 355 4.8 8.0 0.00 0.00 0.00 68 1010.3
20260509061042 12 9 3.2 8.0 0.00 0.00 0.00 69 1010.4
20260509060539 12 340 4.8 8.0 0.00 0.00 0.00 68 1010.6
20260509060034 12 334 4.8 6.4 0.00 0.00 0.00 68 1010.6
20260509055526 12 355 1.6 3.2 0.00 0.00 0.00 68 1010.5
20260509055025 12 355 1.6 3.2 0.00 0.00 0.00 68 1010.6
20260509054600 12 355 0.0 3.2 0.00 0.00 0.00 67 1010.5
20260509054041 12 355 0.0 3.2 0.00 0.00 0.00 68 1010.5
20260509053532 12 355 0.0 3.2 0.00 0.00 0.00 67 1010.4
20260509053027 12 355 1.6 3.2 0.00 0.00 0.00 67 1010.5
20260509052538 13 355 0.0 4.8 0.00 0.00 0.00 68 1010.6
20260509052034 12 355 0.0 4.8 0.00 0.00 0.00 67 1010.6
20260509051526 12 355 1.6 6.4 0.00 0.00 0.00 67 1010.5
20260509051044 12 348 1.6 6.4 0.00 0.00 0.00 66 1010.5
20260509050541 12 355 3.2 6.4 0.00 0.00 0.00 67 1010.6
20260509050038 12 355 3.2 6.4 0.00 0.00 0.00 68 1010.5
20260509045529 12 341 3.2 6.4 0.00 0.00 0.00 68 1010.6
20260509045044 12 331 3.2 6.4 0.00 0.00 0.00 68 1010.6
20260509044532 12 298 3.2 6.4 0.00 0.00 0.00 68 1010.6
20260509044026 13 351 1.6 4.8 0.00 0.00 0.00 68 1010.7
20260509043542 13 128 1.6 4.8 0.00 0.00 0.00 68 1010.7
20260509043037 13 355 1.6 4.8 0.00 0.00 0.00 68 1010.8
20260509042531 13 355 1.6 4.8 0.00 0.00 0.00 68 1010.8
20260509042026 13 355 0.0 4.8 0.00 0.00 0.00 67 1010.8
20260509041603 13 355 0.0 0.0 0.00 0.00 0.00 67 1011.0
20260509041037 13 355 0.0 0.0 0.00 0.00 0.00 67 1011.0
20260509040541 13 355 0.0 0.0 0.00 0.00 0.00 68 1011.0
20260509040035 13 355 0.0 4.8 0.00 0.00 0.00 67 1010.9
20260509035524 13 355 0.0 4.8 0.00 0.00 0.00 66 1011.0
20260509035045 13 355 3.2 6.4 0.00 0.00 0.00 66 1011.1
20260509034538 13 330 3.2 6.4 0.00 0.00 0.00 66 1011.0
20260509034038 13 69 1.6 3.2 0.00 0.00 0.00 66 1010.9
20260509033556 13 68 0.0 3.2 0.00 0.00 0.00 66 1011.0
20260509033054 13 68 1.6 4.8 0.00 0.00 0.00 66 1010.9
20260509032526 13 68 3.2 4.8 0.00 0.00 0.00 66 1011.0
20260509032043 13 68 3.2 4.8 0.00 0.00 0.00 65 1011.0
20260509031541 13 68 3.2 4.8 0.00 0.00 0.00 63 1011.1
20260509031042 13 68 0.0 1.6 0.00 0.00 0.00 64 1011.2
20260509030540 13 68 0.0 1.6 0.00 0.00 0.00 64 1011.4
20260509030034 13 68 0.0 3.2 0.00 0.00 0.00 63 1011.4
20260509025525 13 68 0.0 4.8 0.00 0.00 0.00 62 1011.6
20260509025044 13 124 3.2 4.8 0.00 0.00 0.00 62 1011.4
20260509024600 14 124 0.0 3.2 0.00 0.00 0.00 63 1011.6
20260509024058 14 124 0.0 3.2 0.00 0.00 0.00 62 1011.3
20260509023528 14 124 1.6 3.2 0.00 0.00 0.00 61 1011.3
20260509023102 14 124 1.6 3.2 0.00 0.00 0.00 60 1011.3
20260509022554 14 124 0.0 3.2 0.00 0.00 0.00 60 1011.4
20260509022026 14 124 0.0 4.8 0.00 0.00 0.00 59 1011.6
20260509021532 14 124 0.0 8.0 0.00 0.00 0.00 59 1011.4
20260509021024 14 123 4.8 11.3 0.00 0.00 0.00 59 1011.5
20260509020041 14 129 6.4 16.1 0.00 0.00 0.00 60 1011.5
20260509015535 14 145 8.0 16.1 0.00 0.00 0.00 60 1011.4
20260509015031 14 149 9.7 12.9 0.00 0.00 0.00 59 1011.2
20260509014544 14 132 4.8 12.9 0.00 0.00 0.00 60 1011.1
20260509014041 14 136 6.4 12.9 0.00 0.00 0.00 59 1011.2
20260509013540 14 134 4.8 8.0 0.00 0.00 0.00 59 1011.2
20260509013034 15 134 3.2 4.8 0.00 0.00 0.00 59 1011.1
20260509012527 15 125 0.0 16.1 0.00 0.00 0.00 59 1011.1
20260509012044 15 125 3.2 16.1 0.00 0.00 0.00 58 1011.1
20260509011602 15 146 6.4 11.3 0.00 0.00 0.00 60 1011.2
20260509011035 15 24 3.2 4.8 0.00 0.00 0.00 58 1011.0
20260509010525 15 24 3.2 4.8 0.00 0.00 0.00 56 1010.9
20260509010043 15 298 1.6 4.8 0.00 0.00 0.00 55 1011.1
20260509005600 15 298 0.0 1.6 0.00 0.00 0.00 55 1011.0
20260509005032 15 298 0.0 3.2 0.00 0.00 0.00 57 1010.9
20260509004525 15 298 0.0 3.2 0.00 0.00 0.00 55 1010.9
20260509004104 15 298 1.6 3.2 0.00 0.00 0.00 54 1011.0
20260509003540 15 298 1.6 3.2 0.00 0.00 0.00 53 1011.0
20260509003030 15 298 0.0 1.6 0.00 0.00 0.00 52 1011.0
20260509002603 16 298 0.0 1.6 0.00 0.00 0.00 54 1011.1
20260509002043 16 298 0.0 3.2 0.00 0.00 0.00 51 1011.0
20260509001538 16 298 1.6 3.2 0.00 0.00 0.00 52 1011.0
20260509001039 16 298 0.0 1.6 0.00 0.00 0.00 51 1011.0
20260509000531 16 298 0.0 4.8 0.00 0.00 0.00 51 1010.9
20260509000026 16 298 1.6 4.8 0.00 0.00 0.00 51 1011.0
20260508235536 16 295 0.0 4.8 0.00 0.00 0.00 50 1010.9
20260508235052 17 295 1.6 6.4 0.00 0.00 0.00 48 1010.9
20260508234524 17 290 3.2 6.4 0.00 0.00 0.00 46 1011.0
20260508234038 17 283 3.2 6.4 0.00 0.00 0.00 45 1010.9
20260508233556 17 280 3.2 8.0 0.00 0.00 0.00 46 1010.8
20260508233029 17 301 3.2 12.9 0.00 0.00 0.00 45 1010.7
20260508232603 17 258 4.8 14.5 0.00 0.00 0.00 44 1010.6
20260508232040 17 257 4.8 14.5 0.00 0.00 0.00 43 1010.6
20260508231534 17 279 8.0 14.5 0.00 0.00 0.00 44 1010.6
20260508231028 17 273 6.4 14.5 0.00 0.00 0.00 44 1010.5
20260508230558 17 292 8.0 14.5 0.00 0.00 0.00 43 1010.6
20260508230032 17 259 9.7 14.5 0.00 0.00 0.00 43 1010.7
20260508225524 17 271 6.4 14.5 0.00 0.00 0.00 43 1010.7
20260508225044 17 296 3.2 19.3 0.00 0.00 0.00 44 1010.8
20260508224537 17 277 8.0 19.3 0.00 0.00 0.00 43 1010.7
20260508224057 17 294 8.0 17.7 0.00 0.00 0.00 43 1010.8
20260508223553 17 271 4.8 29.0 0.00 0.00 0.00 42 1010.9
20260508223027 17 290 16.1 29.0 0.00 0.00 0.00 42 1011.0
20260508222542 17 281 14.5 25.7 0.00 0.00 0.00 42 1010.9
20260508222042 17 280 14.5 27.4 0.00 0.00 0.00 42 1010.9
20260508221533 17 273 12.9 29.0 0.00 0.00 0.00 42 1010.9
20260508221031 17 231 14.5 29.0 0.00 0.00 0.00 41 1010.8
20260508220524 17 256 12.9 27.4 0.00 0.00 0.00 41 1010.8
20260508220105 17 255 17.7 32.2 0.00 0.00 0.00 41 1010.8
20260508215557 17 236 12.9 32.2 0.00 0.00 0.00 40 1010.8
20260508215030 18 247 14.5 30.6 0.00 0.00 0.00 40 1010.8
20260508214528 18 281 17.7 32.2 0.00 0.00 0.00 40 1010.7
20260508214027 18 256 14.5 32.2 0.00 0.00 0.00 40 1010.7
20260508213559 18 213 19.3 29.0 0.00 0.00 0.00 39 1010.7
20260508213041 18 228 14.5 29.0 0.00 0.00 0.00 39 1010.6
20260508212531 18 248 14.5 29.0 0.00 0.00 0.00 40 1010.7
20260508212026 18 240 11.3 29.0 0.00 0.00 0.00 39 1010.7
20260508211541 18 240 12.9 29.0 0.00 0.00 0.00 39 1010.6
20260508211037 18 221 12.9 29.0 0.00 0.00 0.00 39 1010.6
20260508210531 18 245 12.9 24.1 0.00 0.00 0.00 39 1010.8
20260508210026 18 250 11.3 20.9 0.00 0.00 0.00 39 1010.8
20260508205544 18 256 8.0 20.9 0.00 0.00 0.00 40 1010.6
20260508205038 18 238 11.3 20.9 0.00 0.00 0.00 39 1010.6
20260508204535 18 237 9.7 25.7 0.00 0.00 0.00 38 1010.7
20260508204030 18 254 14.5 29.0 0.00 0.00 0.00 37 1010.7
20260508203547 18 224 14.5 37.0 0.00 0.00 0.00 37 1010.8
20260508203103 18 262 17.7 37.0 0.00 0.00 0.00 36 1010.8
20260508202538 18 260 16.1 29.0 0.00 0.00 0.00 36 1010.8
20260508202032 18 251 12.9 29.0 0.00 0.00 0.00 37 1010.8
20260508201525 18 229 9.7 27.4 0.00 0.00 0.00 37 1010.7
20260508201106 18 219 17.7 27.4 0.00 0.00 0.00 35 1010.7
20260508200542 18 271 11.3 24.1 0.00 0.00 0.00 37 1010.8
20260508200040 18 211 9.7 25.7 0.00 0.00 0.00 37 1010.8
20260508195540 18 243 11.3 20.9 0.00 0.00 0.00 38 1010.8
20260508195035 18 248 9.7 20.9 0.00 0.00 0.00 38 1010.9
20260508194531 18 243 9.7 29.0 0.00 0.00 0.00 36 1011.0
20260508194026 18 244 17.7 29.0 0.00 0.00 0.00 34 1011.0
20260508193543 18 266 14.5 33.8 0.00 0.00 0.00 35 1011.0
20260508193101 18 296 16.1 40.2 0.00 0.00 0.00 34 1010.8
20260508192534 18 223 24.1 40.2 0.00 0.00 0.00 33 1011.0
20260508192028 18 232 14.5 27.4 0.00 0.00 0.00 36 1011.0
20260508191542 19 257 9.7 22.5 0.00 0.00 0.00 36 1011.0
20260508191042 19 217 9.7 22.5 0.00 0.00 0.00 35 1010.9
20260508190534 20 245 9.7 20.9 0.00 0.00 0.00 35 1010.8
20260508190030 20 232 8.0 22.5 0.00 0.00 0.00 35 1010.9
20260508185542 20 244 11.3 29.0 0.00 0.00 0.00 35 1011.0
20260508185041 20 274 9.7 29.0 0.00 0.00 0.00 34 1010.9
20260508184532 20 225 14.5 27.4 0.00 0.00 0.00 34 1011.1
20260508184028 20 265 6.4 27.4 0.00 0.00 0.00 35 1011.0
20260508183603 20 217 12.9 27.4 0.00 0.00 0.00 33 1011.1
20260508183038 20 245 8.0 25.7 0.00 0.00 0.00 34 1011.2
20260508182526 20 159 9.7 30.6 0.00 0.00 0.00 35 1011.5
20260508182105 21 232 12.9 35.4 0.00 0.00 0.00 33 1011.4
20260508181539 21 249 16.1 35.4 0.00 0.00 0.00 35 1011.5
20260508181032 21 246 9.7 27.4 0.00 0.00 0.00 35 1011.4
20260508180525 20 249 9.7 25.7 0.00 0.00 0.00 38 1011.5
20260508180045 20 238 12.9 25.7 0.00 0.00 0.00 39 1011.6
20260508175536 19 229 8.0 30.6 0.00 0.00 0.00 39 1011.6
20260508175034 19 231 6.4 30.6 0.00 0.00 0.00 39 1011.7
20260508174552 19 182 11.3 25.7 0.00 0.00 0.00 37 1011.7
20260508174050 19 297 8.0 20.9 0.00 0.00 0.00 39 1011.8
20260508173541 18 237 8.0 20.9 0.00 0.00 0.00 40 1011.9
20260508173034 18 234 9.7 27.4 0.00 0.00 0.00 37 1011.9
20260508172527 18 191 11.3 30.6 0.00 0.00 0.00 39 1012.0
20260508172043 19 248 11.3 22.5 0.00 0.00 0.00 38 1011.9
20260508171536 19 225 8.0 22.5 0.00 0.00 0.00 38 1012.3
20260508171028 20 208 11.3 30.6 0.00 0.00 0.00 38 1012.3
20260508170542 19 243 14.5 30.6 0.00 0.00 0.00 39 1012.4
20260508170037 19 254 9.7 22.5 0.00 0.00 0.00 40 1012.4
20260508165554 18 190 8.0 16.1 0.00 0.00 0.00 39 1012.5
20260508165027 18 232 8.0 25.7 0.00 0.00 0.00 40 1012.5
20260508164536 18 228 12.9 25.7 0.00 0.00 0.00 39 1012.6
20260508164030 18 207 6.4 27.4 0.00 0.00 0.00 41 1012.7
20260508163524 18 182 11.3 27.4 0.00 0.00 0.00 42 1012.8
20260508163045 17 223 9.7 24.1 0.00 0.00 0.00 43 1012.9